Home   Weather   Ajmān   Past weeks
Flag for United Arab Emirates

Past Weather in Ajmān, Ajman, United Arab Emirates — Yesterday and Last 2 Weeks

Now
77 °F

Clear.


Feels Like: 79 °F
Forecast: 98 / 82 °F
Wind: 5 mph from East

Location: Sharjah International Airport

Current Time: May 25, 2019 at 7:43:22 am

Latest Report: May 25, 2019 at 7:00 am


Visibility: 4 mi

Pressure: 29.80 "Hg

Humidity: 69%

Dew Point: 66 °F

Location of AjmānLocation

Past Weather in Ajmān — Graph

°F

Ajmān Temperature Yesterday

Maximum temperature yesterday: 97 °F (at 11:00 am)
Minimum temperature yesterday: 79 °F (at 5:00 am)
Average temperature yesterday: 88 °F

High & Low Weather Summary for the Past Weeks

 TemperatureHumidityPressure
High104 °F (May 12, 2:00 pm)84% (May 21, 6:00 am)29.86 "Hg (May 21, 6:00 am)
Low72 °F (May 25, 5:00 am)6% (May 12, 2:00 pm)29.65 "Hg (May 14, 4:00 pm)
Average89 °F40%29.74 "Hg
* Reported May 10 6:00 am — May 25 6:00 am, Ajmān. Weather by CustomWeather, © 2019

Note: Actual official high and low records may vary slightly from our data, if they occured in-between our weather recording intervals... More about our weather records

Advertising

Ajmān Weather History for the Previous 24 Hours

Scroll right to see more
 ConditionsComfort  
Time TempWeatherWind HumidityBarometerVisibility
6:00 am
Sat, May 25
72 °FClear.5 mph78%29.77 "Hg4 mi
5:00 am72 °FClear.3 mph78%29.77 "Hg10 mi
4:00 am73 °FClear.2 mph74%29.74 "Hg10 mi
3:00 am73 °FClear.3 mph74%29.74 "Hg10 mi
2:00 am81 °FPassing clouds.5 mph62%29.74 "HgN/A
1:00 am77 °FClear.2 mph69%29.77 "Hg10 mi
12:00 am77 °FClear.1 mph65%29.80 "Hg10 mi
11:00 pm
Fri, May 24
81 °FClear.2 mph62%29.80 "Hg10 mi
10:00 pm82 °FClear.2 mph58%29.80 "Hg10 mi
9:00 pm84 °FClear.3 mph55%29.80 "Hg10 mi
8:00 pm86 °FClear.5 mph55%29.77 "Hg10 mi
7:00 pm88 °FClear.6 mph52%29.77 "Hg10 mi
6:00 pm91 °FSunny.8 mph44%29.77 "Hg10 mi
5:00 pm93 °FSunny.12 mph34%29.74 "Hg10 mi
4:00 pm95 °FSunny.15 mph28%29.74 "Hg10 mi
3:00 pm95 °FSunny.14 mph34%29.74 "Hg10 mi
2:00 pm97 °FSunny.13 mph25%29.77 "Hg10 mi
1:00 pm97 °FPassing clouds.14 mph25%29.77 "HgN/A
12:00 pm97 °FSunny.9 mph22%29.80 "Hg10 mi
11:00 am97 °FPassing clouds.8 mph25%29.80 "HgN/A
10:00 am93 °FPassing clouds.8 mph30%29.80 "HgN/A
9:00 am90 °FSunny.10 mph33%29.80 "Hg10 mi
8:00 am86 °FSunny.9 mph38%29.77 "Hg10 mi
7:00 am82 °FPassing clouds.8 mph45%29.74 "HgN/A
Weather by CustomWeather, © 2019

See weather overview